This is the latest recevied weather packets stored in our database for station/object CA3VLN-10. If no packets are shown the sender has not sent any weather packets the latest 10 day(s).
| Time | Temp. | Humidity | Pressure | Rain* | Wind** | Luminosity | Snow |
|---|---|---|---|---|---|---|---|
| 1787592526 | 24.44° C | 38% | 1007.1 hPa | - | - | - | - |
| 1787591626 | 25° C | 37% | 1007.4 hPa | - | - | - | - |
| 1787590726 | 25° C | 37% | 1007 hPa | - | - | - | - |
| 1787589825 | 25.56° C | 36% | 1006.5 hPa | - | - | - | - |
| 1787588925 | 26.11° C | 35% | 1006.6 hPa | - | - | - | - |
| 1787588025 | 25.56° C | 36% | 1007.1 hPa | - | - | - | - |
| 1787587125 | 25° C | 37% | 1006.7 hPa | - | - | - | - |
| 1787586225 | 25° C | 37% | 1006.9 hPa | - | - | - | - |
| 1787585325 | 25° C | 37% | 1006.8 hPa | - | - | - | - |
| 1787584425 | 25° C | 38% | 1006.7 hPa | - | - | - | - |
| 1787583525 | 24.44° C | 38% | 1006.8 hPa | - | - | - | - |
| 1787582625 | 24.44° C | 38% | 1007 hPa | - | - | - | - |
| 1787581724 | 23.89° C | 39% | 1006.7 hPa | - | - | - | - |
| 1787580824 | 23.89° C | 40% | 1006.8 hPa | - | - | - | - |
| 1787579924 | 23.33° C | 41% | 1006.9 hPa | - | - | - | - |
| 1787579024 | 22.78° C | 42% | 1006.5 hPa | - | - | - | - |
| 1787578124 | 22.22° C | 42% | 1006.1 hPa | - | - | - | - |
| 1787577224 | 21.67° C | 44% | 1006.2 hPa | - | - | - | - |
| 1787576324 | 21.11° C | 45% | 1006.8 hPa | - | - | - | - |
| 1787575424 | 20° C | 47% | 1006.6 hPa | - | - | - | - |
| 1787574524 | 19.44° C | 49% | 1006.7 hPa | - | - | - | - |
| 1787573623 | 19.44° C | 49% | 1007.3 hPa | - | - | - | - |
| 1787572788 | 19.44° C | 49% | 1006.6 hPa | - | - | - | - |
| 1787572723 | 19.44° C | 49% | 1006.6 hPa | - | - | - | - |
| 1787572136 | 19.44° C | 50% | 1006 hPa | - | - | - | - |
* Rain since midnight (hover to see other rain measurements)
** Current wind speed in m/s (hover to see current wind gust speed)